Location: Seattle
(47.6064°N, 122.3308°W)
Time: 06:54:43
(UTC-08:00)

SR - Visible Passes

Search period start: 26 November 2020 00:00
Search period end: 06 December 2020 00:00
Orbit: 579 x 876 km, 66.7° (Epoch: 25 November)

Date Brightness Start Highest point End Pass type
(mag) Time Alt. Az. Time Alt. Az. Time Alt. Az.
26 Nov ? 04:32:03 18° S 04:32:03 18° S 04:33:33 10° S visible
26 Nov ? 18:56:39 10° SSW 18:58:48 28° S 18:58:48 28° S visible
27 Nov ? 18:07:41 10° S 18:11:08 28° ESE 18:11:08 28° ESE visible
27 Nov ? 19:49:06 10° WSW 19:50:35 20° WSW 19:50:35 20° WSW visible
28 Nov ? 17:19:50 10° SE 17:22:05 14° ESE 17:23:23 13° E visible
28 Nov ? 18:59:01 10° SW 19:02:49 65° WSW 19:02:49 65° WSW visible
29 Nov ? 18:09:29 10° SSW 18:13:42 54° ESE 18:14:59 40° ENE visible
29 Nov ? 19:52:20 10° W 19:54:25 21° WNW 19:54:25 21° WNW visible
30 Nov ? 17:20:36 10° SSE 17:24:14 27° ESE 17:27:03 15° ENE visible
30 Nov ? 19:01:50 10° WSW 19:06:02 43° NW 19:06:29 41° NNW visible
01 Dec ? 18:11:48 10° SW 18:16:11 81° NW 18:18:29 29° NNE visible
01 Dec ? 19:55:58 10° WNW 19:57:55 16° NW 19:57:55 16° NW visible
02 Dec ? 17:22:19 10° SSW 17:26:31 50° ESE 17:30:26 13° NE visible
02 Dec ? 19:05:01 10° W 19:08:51 27° NW 19:09:50 25° NNW visible
03 Dec ? 18:14:33 10° WSW 18:18:49 45° NW 18:21:43 20° NNE visible
03 Dec ? 20:00:00 10° NW 20:01:07 12° NW 20:01:07 12° NW visible
04 Dec ? 17:24:35 10° SW 17:28:58 86° WNW 17:33:32 11° NE visible
04 Dec ? 19:08:35 10° WNW 19:11:49 18° NNW 19:12:57 17° NNW visible
05 Dec ? 18:17:42 10° W 18:21:37 28° NW 18:24:43 15° N visible
